Regional Weather Roundup
Issued by NWS

Home | Current Version | Previous Version | Text Only | Print | Product List | Glossary On
Versions: 1 2 3 4 5 6 7 8 9 10 11 12 13 14 15 16 17 18 19 20 21 22 23 24 25 26 27 28 29 30 31 32 33 34 35 36 37 38 39 40 41 42 43 44 45 46 47 48 49 50
000
ASUS44 KMEG 100210
RWRTN
TENNESSEE HOURLY STATE WEATHER ROUNDUP
NATIONAL WEATHER SERVICE MEMPHIS TN
800 PM CST FRI DEC 09 2022

TNZ002-004-019-021-049-052-054-088>092-100300-
WEST TENNESSEE

CITY           SKY/WX    TMP DP  RH WIND       PRES   REMARKS
MEMPHIS INTL   MOCLDY    50  49  96 S3        30.16R
NWS MEMPHIS      N/A     49 N/A N/A MISG        N/A
JACKSON        MOCLDY    49  48  97 SW3       30.17R
DYERSBURG        N/A     49  32  52 MISG        N/A  HAZE
SOMERVILLE     FOG       48  48 100 CALM      30.16R VSB 1/2
COVINGTON      FOG       46  46 100 CALM      30.16R VSB 1/4
UNION CITY     CLEAR     48  48 100 S6        30.14R
BOLIVAR        FOG       46  46 100 CALM      30.15S VSB 1/4
PARIS          FOG       45  45 100 CALM      30.14S VSB 1/4
HUNTINGDON     CLEAR     48  46  93 CALM      30.14S FOG
SELMER         MOCLDY    50  50 100 CALM      30.16R FOG
SAVANNAH       FOG       54  52  94 CALM      30.15R VSB 3/4
$$

TNZ008-025-027-028-033-062-065-066-100300-
NORTH MIDDLE TENNESSEE

CITY           SKY/WX    TMP DP  RH WIND       PRES   REMARKS
NASHVILLE      MOCLDY    54  51  90 VRB3      30.16R
DICKSON        CLEAR     50  50 100 CALM      30.14R
PORTLAND       CLOUDY    54  54 100 CALM      30.14R
LEBANON        PTCLDY    54  54 100 CALM      30.12S
SMYRNA         MOCLDY    52  52 100 CALM      30.16R FOG
MURFREESBORO   MOCLDY    55  54  94 CALM      30.13S
COOKEVILLE     CLOUDY    54  54 100 CALM      30.14S FOG
LIVINGSTON     CLOUDY    55  54  94 CALM      30.12S
GALLATIN       MOCLDY    54  54 100 CALM      30.17R
CROSSVILLE     CLOUDY    54  53  97 W7        30.15R
ROCKWOOD       CLOUDY    55  55 100 W3        30.12S
$$

TNZ061-075-076-078-094-096-097-100300-
SOUTH MIDDLE TENNESSEE

CITY           SKY/WX    TMP DP  RH WIND       PRES   REMARKS
LAWRENCEBURG   CLEAR     54  52  94 CALM      30.15R
LEWISBURG      CLEAR     54  54 100 CALM      30.15R
FAYETTEVILLE   CLOUDY    57  57 100 N5        30.16R
TULLAHOMA      MOCLDY    55  55 100 NW5       30.14R
WINCHESTER     CLOUDY    59  59 100 CALM      30.14R
MCMINNVILLE    CLOUDY    57  55  94 CALM      30.14S
COLUMBIA       PTCLDY    55  55 100 CALM      30.14R
SHELBYVILLE    MOCLDY    55  55 100 CALM      30.14S
$$

TNZ017-018-042-046-047-100300-
NORTHEAST TENNESSEE

CITY           SKY/WX    TMP DP  RH WIND       PRES   REMARKS
TRI CITIES     MOCLDY    55  49  80 E3        30.12R
ELIZABETHTON   CLOUDY    55  48  76 E5        30.12R
GREENEVILLE    CLOUDY    54  50  87 S5        30.11R
$$

TNZ012-013-036-069-073-074-100300-
CENTRAL EAST TENNESSEE

CITY           SKY/WX    TMP DP  RH WIND       PRES   REMARKS
KNOXVILLE      FOG       57  57 100 CALM      30.10S VSB 1/8
OAK RIDGE      FOG       57  56  96 CALM      30.13R VSB 1
DOWNTOWN KNOXV CLOUDY    57  57 100 CALM      30.11S FOG
GATLINBURG     CLOUDY    57  57 100 CALM      30.11S FOG
MORRISTOWN     FOG       55  55 100 CALM      30.10R VSB 1/2
JACKSBORO      FOG       55  55 100 CALM      30.16R VSB 1/2
ONEIDA         CLOUDY    55  55 100 W5        30.13R
$$

TNZ083-085-099-100300-
SOUTHEAST TENNESSEE

CITY           SKY/WX    TMP DP  RH WIND       PRES   REMARKS
CHATTANOOGA    PTCLDY    58  57  97 CALM      30.12R FOG
DAYTON         FOG       55  55 100 CALM      30.11R VSB 3/4
$$

SKY/WX REPORTED AS FAIR MEANS FEW OR NO CLOUDS BELOW
12 THOUSAND FEET.




USA.gov is the U.S. government's official web portal to all federal, state and local government web resources and services.